Location: La Bastide
(43.1661°N, 1.2755°E)
Time: 12:33:12
(UTC+00:00)

BlueWalker 3 - Visible Passes

Search period start: 17 February 2026 00:00
Search period end: 27 February 2026 00:00
Orbit: 451 x 461 km, 53.2° (Epoch: 16 February)

Date Brightness Start Highest point End Pass type
(mag) Time Alt. Az. Time Alt. Az. Time Alt. Az.
20 Feb 5.0 06:01:53 10° SSE 06:03:25 12° SE 06:04:57 10° ESE visible
23 Feb 3.1 05:49:29 10° SSW 05:52:51 39° SE 05:56:15 10° ENE visible
24 Feb 3.5 05:13:51 10° SSW 05:17:01 30° SE 05:20:13 10° ENE visible
25 Feb 3.9 04:39:45 18° SSE 04:41:12 23° SE 04:44:05 10° ENE visible
26 Feb 4.3 04:05:47 17° ESE 04:05:47 17° ESE 04:07:49 10° E visible
26 Feb 1.8 05:39:31 14° WSW 05:42:29 65° NNW 05:46:04 10° NE visible
